Regional Weather Roundup
Issued by NWS

Home | Current Version | Previous Version | Text Only | Print | Product List | Glossary Off
Versions: 1 2 3 4 5 6 7 8 9 10 11 12 13 14 15 16 17 18 19 20 21 22 23 24 25 26 27 28 29 30 31 32 33 34 35 36 37 38 39 40 41 42 43 44 45 46 47 48 49 50

000
ASUS43 KIND 231109
RWRIN

WEATHER ROUNDUP FOR INDIANA
NATIONAL WEATHER SERVICE INDIANAPOLIS IN
600 AM EST FRI FEB 23 2018

NOTE: "FAIR" INDICATES FEW OR NO CLOUDS BELOW 12,000 FEET WITH NO
SIGNIFICANT WEATHER AND/OR OBSTRUCTIONS TO VISIBILITY.

* - STATION DOES NOT REPORT WEATHER SUCH AS PRECIPITATION OR FOG.

+ - STATION NOT QUALITY CONTROLLED BY THE NATIONAL WEATHER SERVICE.
    USE DATA WITH CAUTION...ESPECIALLY DEWPOINT AND RELATIVE
    HUMIDITY OBSERVATIONS.

INZ001>003-010>013-019-020-231200-
NORTHWEST INDIANA

CITY           SKY/WX    TMP DP  RH WIND       PRES   REMARKS
GARY /AIRPORT/ RAIN      39  39 100 SE9       30.13F WCI  33
LA PORTE +     LGT RAIN  37  37  99 SE8       30.15S WCI  31
MICHIGAN CITY+ CLOUDY    37  37 100 SE5       30.15R WCI  34
MONTICELLO +   DRZL/FOG  38  37  95 E8        30.12F VSB 1   WCI  33
RENSSELAER +   DRZL/FOG  37  36  93 E10       30.12F VSB 1/2 WCI  30
VALPARAISO     CLOUDY    39  38  96 E8        30.13F FOG     WCI  33

$$

LMZ046-743>745-231200-
SOUTHERN LAKE MICHIGAN

STATION/POSITION TIME  TEMP    WIND        PRES    WAVE
                       AIR SEA DIR/SP/G            HT
                 (UTC) (F)     (DEG/KT/KT) (MB)    (FT)
BURNS HARBOR     1040   39     150/ 10/ 16 1021.0F
MICHIGAN CITY    1040   38     130/ 16/ 19   N/A

$$

INZ004-005-014>016-021>024-231200-
NORTH CENTRAL INDIANA

CITY           SKY/WX    TMP DP  RH WIND       PRES   REMARKS
GOSHEN         LGT RAIN  37  35  92 SE9       30.16F FOG     WCI  30
LOGANSPORT +   FOG       37  36  93 E10       30.14F VSB 3/4 WCI  30
PERU/GRISSOM   CLOUDY    39  39 100 E9        30.13F FOG     WCI  33
ROCHESTER +    CLOUDY    39  39 100 E9        30.15F FOG     WCI  33
SOUTH BEND     LGT RAIN  36  35  96 SE10      30.16F WCI  28
WARSAW +       DRIZZLE   36  36 100 MISG      30.17F

$$

INZ006>009-017-018-025>027-231200-
NORTHEAST INDIANA

CITY           SKY/WX    TMP DP  RH WIND       PRES   REMARKS
AUBURN +       FOG       34  34 100 E7        30.20F VSB 3/4 WCI  28
FORT WAYNE     LGT RAIN  37  37 100 E10       30.19F FOG     WCI  30
HUNTINGTON +   LGT RAIN  37  35  95 E9        30.18F WCI  30
KENDALLVILLE + FOG       35  35 100 SE10      30.19F VSB 3/4 WCI  27

$$

INZ028-029-035-036-043>045-051>053-231200-
WEST CENTRAL INDIANA

CITY           SKY/WX    TMP DP  RH WIND       PRES   REMARKS
CRAWFORDSVL +  CLOUDY    44  44 100 SE5         N/A  FOG
GREENCASTLE +  CLOUDY    46  46 100 SE7       30.13S FOG
LAFAYETTE      LGT RAIN  42  42 100 E7        30.11F FOG
TERRE HAUTE    LGT RAIN  50  50 100 S7        30.12F FOG

$$

INZ030>032-037>040-046>048-054>057-064-065-231200-
CENTRAL INDIANA

CITY           SKY/WX    TMP DP  RH WIND       PRES   REMARKS
FISHERS *+     CLOUDY    45  45 100 SE7       30.14
GREENWOOD *+   CLOUDY    47 -43   2 S6        30.16S
INDIANAPOLIS   CLOUDY    47  46  97 SE9       30.14F
-EAGLE CREEK   CLOUDY    47  45  93 SE7       30.13F FOG
KOKOMO +       CLOUDY    40  40 100 E9        30.14F FOG     WCI  34
MARION +       FOG       39  39 100 CALM      30.16F VSB 1
MT COMFORT *+  CLOUDY    46  46 100 S6        30.15F
SHELBYVILLE    CLOUDY    51  49  92 S12       30.15F
ZIONSVILLE +   LGT RAIN  44  44 100 SE8       30.14F

$$

INZ033-034-041-042-049-050-058-059-231200-
EAST CENTRAL INDIANA

CITY           SKY/WX    TMP DP  RH WIND       PRES   REMARKS
MUNCIE         CLOUDY    47  45  93 E5        30.16F FOG
RICHMOND +     LGT RAIN  45  45 100 SE20      30.19F

$$

INZ060-061-067>069-081>083-085>088-231200-
SOUTHWEST INDIANA

CITY           SKY/WX    TMP DP  RH WIND       PRES   REMARKS
EVANSVILLE     LGT RAIN  56  56 100 S10       30.16F
HUNTINGBURG +  CLOUDY    57  56  96 SE13      30.15F
WASHINGTON +   CLOUDY    55  53  94 S14       30.14F

$$

INZ062-063-066-070>080-084-089>092-231200-
SOUTH CENTRAL AND SOUTHEAST INDIANA

CITY           SKY/WX    TMP DP  RH WIND       PRES   REMARKS
BATESVILLE +   CLOUDY    48  48 100 MISG      30.20S FOG
BEDFORD +      CLOUDY    52  50  93 S9        30.16F FOG
BLOOMINGTON    FOG       49  49 100 S9        30.15S VSB 3/4
FRENCH LICK *+ CLOUDY    54 N/A N/A S6        30.18F
MADISON *+     CLOUDY    50  50 100 SE13      30.23F
NORTH VERNON + RAIN      50  48  93 SE7       30.21F
SEYMOUR +      RAIN      50  50 100 SE9       30.18F

$$





USA.gov is the U.S. government's official web portal to all federal, state and local government web resources and services.